Content
SEND FEEDBACK

Daily
Averages
Monthly
Summary
Netherlands

HEERDE, NETHERLANDS


Home > Europe > Netherlands
Elevation: 150 feet     Latitude: 52 03N     Longitude: 005 52E

WEATHER
 
SELECT A DAY
Number of Records: 241,035;   Date Range: 7/1/96 - 9/15/14
 
SHARE

PRINT THIS DATA

[ ← Previous Day ]
WEATHER ALMANAC - FEBRUARY 13, 2013
[ Next Day → ]
[ °C ]   °F
Weather ElementAverageHighLow
Temperature28.7 °F37.4 °F (1:25 pm)19.4 °F (4:25 am)
Dewpoint22.6 °F28.4 °F (12:55 am)17.6 °F (4:25 am)
Humidity79.1 %100 % (4:55 am)52 % (1:25 pm)
Barometer30.23 in30.27 in (10:55 am)30.12 in (12:55 am)
Wind Speed4.3 mph10.4 mph (1:25 am)
Weather ElementAverage
Visibility5.8 mi
Wind DirectionSSE (153.9 °)

Weather ElementTotal
Precipitation---
Heating Degree Days36.6 (Base 65)
Averaged from 51 records on February 13, 2013
WEATHER CONDITIONS BREAKOUT
WIND DIRECTION BREAKOUT
WEATHER BY HOUR - FEBRUARY 13, 2013
[ °C ]   °F
Local TimeTemperatureDewpointHumidityBarometerVisibilityWind DirectionWind SpeedGust SpeedPrecipitationEventsConditions
12:55 AM30.2 °F28.4 °F93 %30.12 in6.2 miNE (40°)9.2 mphOvercast
1:25 AM30.2 °F26.6 °F86 %30.12 in6.2 miNE (50°)10.4 mphOvercast
1:55 AM30.2 °F26.6 °F86 %30.12 in6.2 miNNE (30°)5.8 mphOvercast
2:25 AM30.2 °F26.6 °F86 %30.12 in6.2 miNorth (10°)3.5 mphOvercast
2:55 AM28.4 °F26.6 °F93 %30.15 in6.2 miNE (40°)3.5 mphMostly Cloudy
3:25 AM26.6 °F23.0 °F86 %30.15 in6.2 miNE (40°)3.5 mphMostly Cloudy
3:55 AM23.0 °F21.2 °F93 %30.15 in4.3 miNE (40°)2.3 mphMist
4:25 AM19.4 °F17.6 °F93 %30.15 inNNW (330°)3.5 mphMist
4:55 AM21.2 °F21.2 °F100 %30.15 in1.6 miNW (310°)1.2 mphPartly Cloudy
5:25 AM21.2 °F19.4 °F93 %30.15 inNNW (330°)3.5 mphOvercast
5:55 AM21.2 °F19.4 °F93 %30.18 in3.7 miNorth (360°)2.3 mphOvercast
6:25 AM23.0 °F21.2 °F93 %30.18 in4.3 miNNW (330°)2.3 mphOvercast
6:55 AM23.0 °F23.0 °F100 %30.18 in5.6 miNNW (340°)1.2 mphOvercast
7:25 AM24.8 °F23.0 °F93 %30.21 in5.6 miWest (260°)1.2 mphOvercast
7:55 AM24.8 °F24.8 °F100 %30.21 in5.6 miNE (50°)1.2 mphOvercast
8:25 AM24.8 °F23.0 °F93 %30.21 in5.6 miNorth (360°)1.2 mphOvercast
8:55 AM26.6 °F24.8 °F93 %30.24 in5.6 miNNW (340°)1.2 mphOvercast
9:25 AM26.6 °F24.8 °F93 %30.24 in6.2 miNNW (340°)2.3 mphOvercast
9:55 AM28.4 °F26.6 °F93 %30.24 in6.2 miNorth (10°)2.3 mphOvercast
10:25 AM30.2 °F24.8 °F80 %30.24 in6.2 miEast (90°)3.5 mphOvercast
10:55 AM32.0 °F24.8 °F75 %30.27 in6.2 miSE (140°)1.2 mphOvercast
11:25 AM32.0 °F24.8 °F75 %30.27 in6.2 miSE (130°)4.6 mphOvercast
11:55 AM33.8 °F24.8 °F70 %30.27 in6.2 miSSE (150°)4.6 mph
12:00 PM33.8 °F24.8 °F70 %30.27 in6.2 miSE (140°)5.8 mphPartly Cloudy
12:25 PM35.6 °F23.0 °F60 %30.27 in6.2 miSSE (150°)5.8 mphMostly Cloudy
12:55 PM35.6 °F21.2 °F56 %30.27 in6.2 miSouth (180°)4.6 mphOvercast
1:25 PM37.4 °F21.2 °F52 %30.27 in6.2 miSSE (160°)4.6 mphMostly Cloudy
1:55 PM33.8 °F21.2 °F60 %30.27 in6.2 miSE (140°)5.8 mphOvercast
2:25 PM33.8 °F21.2 °F60 %30.27 in6.2 miSE (140°)4.6 mphOvercast
2:55 PM33.8 °F21.2 °F60 %30.27 in6.2 miSE (130°)4.6 mphOvercast
3:25 PM33.8 °F23.0 °F65 %30.27 in6.2 miSSE (150°)5.8 mphOvercast
3:55 PM33.8 °F23.0 °F65 %30.27 in6.2 miSE (140°)4.6 mphOvercast
3:57 PM33.8 °F21.2 °F60 %30.27 in6.2 miSE (140°)2.3 mphOvercast
4:25 PM33.8 °F21.2 °F60 %30.27 in6.2 miENE (70°)3.5 mphOvercast
4:55 PM33.8 °F23.0 °F65 %30.27 in6.2 miSE (140°)3.5 mphOvercast
5:25 PM33.8 °F23.0 °F65 %30.27 in6.2 miSSE (150°)5.8 mphOvercast
5:55 PM32.0 °F21.2 °F64 %30.27 in6.2 miSE (130°)5.8 mphPartly Cloudy
6:25 PM28.4 °F21.2 °F74 %30.27 in6.2 miSE (130°)4.6 mph
6:33 PM28.4 °F21.2 °F74 %30.27 in6.2 miSE (130°)4.6 mphPartly Cloudy
6:55 PM26.6 °F21.2 °F80 %30.27 in6.2 miESE (120°)5.8 mphPartly Cloudy
7:25 PM26.6 °F19.4 °F74 %30.27 in6.2 miESE (120°)4.6 mph
7:43 PM26.6 °F19.4 °F74 %30.27 in6.2 miESE (120°)5.8 mph
7:55 PM26.6 °F21.2 °F80 %30.27 in6.2 miESE (120°)4.6 mph
8:25 PM24.8 °F19.4 °F80 %30.27 in5.6 miSE (130°)3.5 mphHaze
8:55 PM26.6 °F21.2 °F80 %30.27 in6.2 miESE (120°)5.8 mphPartly Cloudy
9:25 PM26.6 °F21.2 °F80 %30.27 in6.2 miSE (130°)4.6 mphPartly Cloudy
9:55 PM26.6 °F21.2 °F80 %30.27 in5.6 miSE (130°)5.8 mphHaze
10:25 PM26.6 °F21.2 °F80 %30.27 in5.0 miSE (130°)5.8 mphHaze
10:55 PM26.6 °F23.0 °F86 %30.27 in5.0 miSE (130°)6.9 mphPartly Cloudy
11:25 PM26.6 °F23.0 °F86 %30.27 in4.3 miSE (130°)6.9 mphMist
11:55 PM26.6 °F23.0 °F86 %30.24 in5.0 miSE (130°)6.9 mphMist
Hourly data recorded from EHDL, located miles away from Heerde, Netherlands







STORIES FROM OUR PARTNERS